Preview of NWS' New Version of Forecast
This preview is not operational and should not be used for support decisions.

Regional Weather Roundup (RWR)

Issued by Philadelphia/Mt Holly (PHI)

                            
000
ASUS41 KPHI 251312
RWRPHI

REGIONAL WEATHER ROUNDUP
NATIONAL WEATHER SERVICE MOUNT HOLLY NJ
900 AM EDT SAT MAY 25 2019

NOTE:  "FAIR" INDICATES FEW OR NO CLOUDS BELOW 12,000 FEET WITH NO
SIGNIFICANT WEATHER AND/OR OBSTRUCTIONS TO VISIBILITY.

 * = STATION DOES NOT REPORT PRECIPITATION (E.G. RAIN, SNOW, ETC.) 
        OR FOG.

NJZ015>026-251400-
SOUTHERN NEW JERSEY
  
CITY           SKY/WX    TMP DP  RH WIND       PRES   REMARKS
POMONA         FAIR      63  50  62 S10       30.25R                  
WILDWOOD*      CLOUDY    66  54  65 SE10      30.25R                  
MILLVILLE      CLOUDY    63  51  65 S5        30.24R                  
WRIGHTSTOWN    FAIR      64  50  61 SE8       30.23R                  
MOUNT HOLLY    PTSUNNY   64  52  64 S5        30.25R                  
TRENTON        FAIR      61  52  72 S7        30.24R                  

$$
NJZ001>014-251400-
NORTHERN NEW JERSEY
  
CITY           SKY/WX    TMP DP  RH WIND       PRES   REMARKS
SUSSEX         FAIR      60  54  80 SW3       30.23F                  
ANDOVER*         N/A     60  51  72 VRB6      30.23S                  
MORRISTOWN     MOSUNNY   61  54  77 S6        30.24S                  
NEWARK         PTSUNNY   62  51  67 S7        30.24S                  
TETERBORO      FAIR      62  51  67 S9        30.23S                  
CALDWELL       FAIR      62  51  67 SW5       30.24S                  
SOMERVILLE     FAIR      62  53  72 VRB6      30.23S                  
ALLAIRE*       FAIR      61  49  64 SE8       30.26R                  
TOMS RIVER*    FAIR      63  51  65 S9        30.26R                  

$$
PAZ043-044-047-054-055-060>062-066>071-251400-
EASTERN PENNSYLVANIA
  
CITY           SKY/WX    TMP DP  RH WIND       PRES   REMARKS
PHILADELPHIA   PTSUNNY   62  51  67 SE7       30.25R                  
NORTH PHILA    PTSUNNY   63  49  60 SE8       30.26R                  
BLUE BELL*     CLOUDY    62  51  69 SE7       30.25R                  
DOYLESTOWN     CLOUDY    62  51  67 VRB5      30.24                   
QUAKERTOWN*    CLOUDY    61  54  77 S7        30.24R                  
PERKASIE*      CLOUDY    59  54  82 S6        30.25R                  
POTTSTOWN      CLOUDY    60  51  72 S7        30.26R                  
LANCASTER      CLOUDY    64  53  67 S8        30.22R                  
COATESVILLE    PTSUNNY   61  54  77 VRB6      30.25R                  
WEST CHESTER   CLOUDY    61  52  72 SE6       30.25R                  
READING        PTSUNNY   63  53  70 SE8       30.22R                  
ALLENTOWN      CLOUDY    63  51  65 S5        30.23R                  
QN CITY/ALNTWN CLOUDY    61  52  72 SW6       30.25R                  
MOUNT POCONO   CLOUDY    54  49  83 SE10      30.23R                  
HAZLETON       PTSUNNY   57  46  67 SE8       30.25R                  
LEHIGHTON      CLOUDY    57  52  82 CALM      30.25R                  
WILKES BARRE   CLOUDY    60  51  72 VRB3      30.20R                  

$$
DEZALL-MDZ008-012-015-019-020-251400-
DELAWARE AND EASTERN MARYLAND
  
CITY           SKY/WX    TMP DP  RH WIND       PRES   REMARKS
WILMINGTON     CLOUDY    62  55  77 SE10      30.25R                  
DOVER          CLOUDY    64  57  79 SE9       30.23R                  
CHESWOLD         N/A     64  57  77 SE7       30.24R                  
GEORGETOWN     CLOUDY    65  57  75 SE10      30.24R                  
EASTON         MOSUNNY   64  57  77 E7        30.25S                  
STEVENSVILLE   CLOUDY    66  55  68 SE9       30.22R                  
PATUXENT       FAIR      70  60  70 SE13      30.21R                  
OCEAN CITY     CLOUDY    64  56  75 E10       30.24R                  
WALLOPS ISLAND CLOUDY    67  61  81 E12       30.23R                  
CAMBRIDGE      CLOUDY    64  57  77 SE8       30.22S                  
SALISBURY      CLOUDY    65  59  81 SE8       30.23R                  

$$
PAZ001-021-NYZ056-072-MDZ011-DCZ001-251400-
OTHER NEARBY LOCATIONS
  
CITY           SKY/WX    TMP DP  RH WIND       PRES   REMARKS
HARRISBURG     FAIR      67  53  61 SE7       30.21R                  
STATE COLLEGE  PTSUNNY   63  54  72 SE3       30.18R                  
WILLIAMSPORT   CLOUDY    62  50  64 NE9       30.17S                  
BINGHAMTON     FAIR      56  49  77 S9        30.17R                  
NEW YORK CITY  FAIR      61  51  70 CALM      30.26S                  
BALTIMORE      PTSUNNY   67  56  67 SE7       30.21R                  
WASHINGTON DC  FAIR      69  55  60 SE7       30.21S                  

$$